Regional Weather Roundup
Issued by NWS Cleveland, OH

Home | Current Version | Previous Version | Graphics & Text | Print | Product List | Glossary On
Versions: 1 2 3 4 5 6 7 8 9 10 11 12 13 14 15 16 17 18 19 20 21 22 23 24 25 26 27 28 29 30 31 32 33 34 35 36 37 38 39 40 41 42 43 44 45 46 47 48 49 50
000
ASUS41 KCLE 142202
RWRCLE
OHIO REGIONAL WEATHER ROUNDUP
NATIONAL WEATHER SERVICE CLEVELAND, OH
500 PM EST THU DEC 14 2017

NOTE: "FAIR" INDICATES FEW OR NO CLOUDS BELOW 12,000 FEET WITH NO
SIGNIFICANT WEATHER AND/OR OBSTRUCTIONS TO VISIBILITY.

OHZ001>008-015>018-024>027-034-035-043-044-142300-
   NORTHWEST OHIO

CITY           SKY/WX    TMP DP  RH WIND       PRES   REMARKS
DEFIANCE       CLOUDY    17   6  62 W3        30.07R
FINDLAY        CLOUDY    16   3  56 W3        30.04R
TOLEDO EXPRESS PTCLDY    19   8  62 NW5       30.05R WCI  12
TOLEDO EXEC    CLOUDY    18   7  62 NW3       30.06R
LIMA           PTCLDY    19  11  70 W3        30.04R
$$

OHZ009>014-019>023-028>033-038-089-142300-
   NORTHEAST OHIO

CITY           SKY/WX    TMP DP  RH WIND       PRES   REMARKS
CLE-HOPKINS    MOCLDY    23  14  68 W9        30.05R WCI  13
CLE-LAKEFRONT  CLOUDY    24  15  68 SW13      30.03R WCI  12
CUY CO. ARPT   FLURRIES  25  19  80 W12       30.02R WCI  14
LORAIN-ELYRIA  CLOUDY    17   8  67 W8        30.04R WCI   7
ASHTABULA      CLOUDY    22  13  68 W6        30.00R WCI  14
AKRON-CANTON   FLURRIES  24  14  65 W9        29.99R WCI  14
WOOSTER        CLOUDY    15  10  80 NW7       30.01R WCI   5
MANSFIELD      CLOUDY    17  11  77 W3        30.00R
YOUNGSTOWN     FLURRIES  23  12  62 W6        29.98R WCI  16
$$

OHZ042-051>053-060>062-070>072-077>081-142300-
  SOUTHWEST OHIO

CITY           SKY/WX    TMP DP  RH WIND       PRES   REMARKS
CINC-COVINGTON MOCLDY    26  16  65 NW3       30.05R
CINC-LUNKEN    PTCLDY    27  16  63 N5        30.09R WCI  22
HAMILTON       CLOUDY    26  16  65 CALM      30.08R
DAYTON         MOCLDY    24  16  71 CALM      30.05R
WRIGHT-PAT AFB MOCLDY    24  14  66 CALM      30.05R
DAYTON GENERAL PTCLDY    24  14  65 CALM      30.04R
WILMINGTON     CLOUDY    22  16  78 N6        30.04R WCI  14
$$

OHZ036-037-039>041-045>050-054>059-063>069-073>076-082>088-142300-
  CENTRAL AND SOUTHEAST OHIO

CITY           SKY/WX    TMP DP  RH WIND       PRES   REMARKS
COLUMBUS       MOCLDY    25  15  66 NW3       30.03S
OSU AIRPORT    CLOUDY    23  16  74 CALM      30.03R
BOLTON FIELD   CLEAR     25  16  68 NW3       30.04R
RICKENBACK AFB PTCLDY    25  15  65 CALM      30.04R
NEWARK         CLEAR     24  15  68 NW6       30.02S WCI  17
MARION         MOCLDY    19  13  77 NW5       30.04  WCI  12
LANCASTER      CLOUDY    24  15  68 CALM      30.04R
ZANESVILLE     MOCLDY    27  14  58 W3        30.02
NEW PHILLY     NOT AVBL
$$




USA.gov is the U.S. government's official web portal to all federal, state and local government web resources and services.